This demonstration page uses our WeatherBlox Daily Observations layout. Learn more.

Left ArrowRight Arrow

34.16533, -84.80231

Hourly Observations for July 13, 2016

Temp ( °F °C ) Dew Point ( °F °C ) Humidity (%) Winds ( mph kmh ) Pressure ( in mb ) Visibility ( mi km ) Precip ( " mm )
12:53 am 00:53 Mostly Clear 73 22.8 69 20.6 87 87 Calm 30.08 1019 10 16 0.00 0.00
1:53 am 01:53 Clear 70 21.1 68 20 93 93 SSE 3 6 30.09 1019 10 16 0.00 0.00
2:53 am 02:53 Clear 69 20.6 68 20 96 96 Calm 30.11 1020 10 16 0.00 0.00
3:53 am 03:53 Clear 68 20 67 19.4 96 96 Calm 30.11 1020 10 16 0.00 0.00
4:53 am 04:53 Clear 68 20 66 18.9 93 93 Calm 30.12 1020 10 16 0.00 0.00
5:53 am 05:53 Clear 68 20 67 19.4 96 96 Calm 30.14 1021 10 16 0.00 0.00
6:53 am 06:53 Sunny 69 20.6 67 19.4 93 93 Calm 30.14 1021 10 16 0.00 0.00
7:53 am 07:53 Sunny 70 21.1 68 20 93 93 Calm 30.14 1021 10 16 0.00 0.00
8:53 am 08:53 Sunny 75 23.9 68 20 79 79 Calm 30.15 1021 10 16 0.00 0.00
9:53 am 09:53 Sunny 78 25.6 69 20.6 74 74 VRB 3 6 30.16 1021 10 16 0.00 0.00
10:53 am 10:53 Sunny 79 26.1 70 21.1 74 74 WSW 3 6 30.16 1021 10 16 0.00 0.00
12:53 pm 12:53 Mostly Sunny 84 28.9 71 21.7 65 65 VRB 3 6 30.15 1021 10 16 0.00 0.00
1:53 pm 13:53 Sunny 87 30.6 71 21.7 59 59 VRB 3 6 30.13 1020 10 16 0.00 0.00
2:53 pm 14:53 Sunny 88 31.1 68 20 52 52 VRB 5 7 30.11 1020 10 16 0.00 0.00
3:53 pm 15:53 Sunny 90 32.2 68 20 48 48 VRB 3 6 30.08 1019 10 16 0.00 0.00
4:53 pm 16:53 Sunny 90 32.2 68 20 48 48 VRB 3 6 30.05 1018 10 16 0.00 0.00
6:53 pm 18:53 Sunny 89 31.7 70 21.1 53 53 S 6 9 30.01 1016 10 16 0.00 0.00
7:53 pm 19:53 Sunny 86 30 71 21.7 61 61 S 5 7 30.03 1017 10 16 0.00 0.00
8:53 pm 20:53 Clear 81 27.2 71 21.7 72 72 S 3 6 30.03 1017 10 16 0.00 0.00
9:53 pm 21:53 Clear 82 27.8 70 21.1 67 67 Calm 30.06 1018 10 16 0.00 0.00
10:53 pm 22:53 Clear 79 26.1 70 21.1 74 74 Calm 30.08 1019 10 16 0.00 0.00
11:53 pm 23:53 Clear 78 25.6 69 20.6 74 74 Calm 30.09 1019 10 16 0.00 0.00

Powered by AerisWeather